Location: Nederland
(52.1000°N, 5.2000°E)
Time: 18:54:37
(UTC+02:00)

FENGYUN 1C DEB - Pass Details

Date: 01 February 2022
Orbit: 736 x 834 km, 99.0° (Epoch: 25 May)

Event Time Altitude Azimuth Distance (km) Brightness Sun altitude
Rises 07:24:29 0° 102° (ESE) 3,315 ? -8.7°
Reaches altitude 10° 07:27:51 10° 79° (E) 2,408 ? -8.2°
Maximum altitude 07:30:37 15° 47° (NE) 2,119 ? -7.8°
Drops below altitude 10° 07:33:26 10° 16° (NNE) 2,442 ? -7.4°
Sets 07:36:52 0° 353° (N) 3,392 ? -6.9°
